Temp
6 6 6 6 6 6 7 7 7 6 7 6 7 7 7 7 8 8 7 7 7 7
5 5 6 6 6 6 6 7 6 6 6 6 6 6 7 6 7 8 7 7 7 7
4 5 5 5 5 5 6 6 7 6 6 7 6 6 6 6 6 6 7 7 7 7
4 4 4 4 4 5 5 6 6 6 6 6 7 6 6 6 5 6 6 6 6 6
3 3 3 4 4 4 5 6 6 6 6 6 6 6 6 6 5 5 5 6 6 6
1 2 2 3 4 3 4 5 5 6 6 6 6 6 6 5 5 5 5 5 5 5
-2 1 2 2 4 4 5 4 6 5 5 6 6 6 5 5 4 4 4 4 5 5
-2 0 1 2 3 5 4 4 5 5 5 5 5 5 4 4 3 3 3 3 3 4
-4 -2 -0 1 3 3 3 4 4 4 4 4 4 3 3 3 3 3 3 3 4 4
-4 -2 -1 1 2 2 3 4 4 4 4 3 3 3 3 2 2 3 3 4 3 3
-5 -3 -1 0 2 2 2 3 3 3 3 2 2 2 3 3 2 3 3 3 4 4
-5 -4 -1 -0 1 1 1 2 3 2 3 2 2 2 2 2 2 3 4 4 5 5
-5 -3 -2 -1 -1 -0 0 1 2 3 2 2 2 2 2 2 2 2 3 4 4 4
-5 -4 -2 -2 -2 -1 -0 1 1 2 2 2 2 2 2 2 2 2 2 3 3 3
Height
1473 1474 1473 1472 1472 1471 1471 1471 1472 1473 1473 1473 1473 1475 1477 1478 1478 1479 1481 1483 1485 1486
1468 1468 1467 1466 1465 1465 1465 1465 1465 1465 1466 1466 1466 1468 1470 1471 1471 1472 1474 1475 1477 1478
1462 1462 1462 1460 1459 1459 1458 1457 1457 1457 1458 1459 1460 1460 1462 1463 1463 1464 1465 1467 1468 1469
1456 1456 1456 1454 1453 1452 1451 1450 1449 1449 1450 1450 1451 1453 1454 1455 1455 1455 1457 1458 1459 1459
1450 1450 1449 1447 1445 1443 1442 1441 1440 1440 1440 1440 1442 1444 1445 1446 1446 1447 1448 1449 1451 1451
1444 1443 1441 1438 1434 1434 1434 1434 1432 1431 1431 1431 1433 1435 1436 1437 1437 1437 1438 1440 1440 1441
1438 1433 1430 1429 1428 1428 1426 1424 1422 1423 1423 1423 1425 1425 1426 1427 1427 1428 1428 1429 1430 1431
1424 1425 1423 1424 1424 1418 1418 1417 1415 1415 1415 1415 1417 1416 1416 1417 1417 1418 1419 1419 1420 1420
1423 1419 1420 1419 1415 1413 1412 1410 1409 1408 1408 1408 1409 1409 1411 1411 1409 1409 1407 1406 1407 1408
1418 1414 1413 1411 1408 1408 1405 1403 1402 1401 1401 1402 1403 1404 1404 1404 1401 1397 1395 1393 1393 1393
1413 1410 1407 1403 1402 1401 1399 1397 1396 1397 1397 1398 1399 1398 1398 1395 1390 1386 1385 1385 1384 1385
1407 1404 1398 1398 1397 1395 1393 1392 1391 1392 1393 1394 1393 1393 1392 1388 1382 1380 1379 1379 1380 1383
1404 1396 1397 1396 1393 1390 1388 1386 1387 1387 1389 1389 1390 1390 1387 1383 1379 1377 1376 1376 1378 1381
1402 1398 1394 1392 1389 1386 1383 1382 1383 1384 1385 1386 1387 1387 1385 1382 1379 1376 1375 1377 1379 1381
Wind_Speed
14 17 18 18 18 17 17 19 21 22 26 26 25 23 24 25 25 25 29 35 37 38
15 14 17 19 19 20 20 21 21 21 23 26 28 28 26 28 27 25 26 26 30 39
14 17 20 19 20 22 23 23 25 26 26 25 26 26 29 29 26 28 30 30 31 32
16 17 19 19 21 22 22 24 28 27 27 26 27 31 31 30 30 30 31 31 32 32
16 17 19 21 21 25 27 24 24 25 27 27 31 29 31 31 30 31 32 31 32 36
16 15 16 19 21 25 25 22 23 24 27 31 31 32 33 32 33 32 32 30 29 32
18 14 14 21 21 24 25 25 23 23 26 26 31 32 30 32 32 32 33 32 32 33
20 17 18 19 21 25 25 26 25 24 25 24 24 26 25 25 26 29 32 34 35 37
23 20 19 19 21 25 24 24 24 23 23 24 21 17 18 22 26 29 34 38 38 37
27 23 20 19 21 23 22 19 19 20 19 16 11 14 16 18 27 35 38 35 36 33
28 24 20 18 20 20 21 17 18 15 14 13 12 12 15 20 19 19 21 23 19 20
29 26 19 19 20 19 18 15 17 16 17 13 13 14 15 19 12 10 12 11 13 15
28 22 20 19 17 18 14 12 15 14 15 13 8 7 9 12 6 5 7 8 9 11
24 20 16 17 16 11 6 9 11 12 13 10 6 3 3 8 3 7 12 14 14 12
Wind_Direction
262 267 274 270 278 275 271 270 261 252 249 248 253 260 264 268 265 249 246 246 245 249
267 265 260 263 265 272 277 273 270 268 260 260 260 264 258 265 266 257 254 255 253 249
284 275 269 275 271 273 272 273 268 265 265 264 261 262 261 263 260 257 255 259 264 259
286 283 280 284 283 279 275 268 265 266 265 264 264 262 261 258 252 253 254 258 264 264
296 287 281 280 287 287 278 273 271 266 264 262 262 262 257 258 255 253 255 256 261 260
312 289 282 292 298 292 290 278 273 270 265 268 263 258 255 257 254 253 255 256 259 264
320 303 304 305 291 293 290 288 283 277 268 264 263 256 252 255 251 252 252 255 260 261
339 302 298 293 284 293 296 287 279 273 264 257 257 252 249 247 254 260 262 261 259 256
333 322 304 293 286 284 291 282 277 267 259 251 239 239 261 265 269 268 266 265 259 256
331 321 314 301 289 294 290 273 266 254 232 222 242 257 266 273 278 270 267 268 265 257
329 321 311 302 290 289 284 269 254 228 223 231 246 261 267 300 277 257 256 255 257 231
327 320 316 300 292 292 277 257 226 234 234 241 244 277 286 305 302 257 248 247 225 220
321 324 308 292 293 287 256 246 237 238 248 228 239 261 295 334 302 250 214 203 200 199
316 313 304 283 281 264 236 234 225 216 206 202 225 240 319 355 164 147 142 134 126 118